Time,TemperatureF,DewpointF,PressureIn,WindDirection,WindDirectionDegrees,WindSpeedMPH,WindSpeedGustMPH,Humidity,HourlyPrecipIn,Conditions,Clouds,dailyrainin,SoftwareType,DateUTC
2013-08-23 00:03:00,76.1,71.9,30.03,NW,309,0.0,0.0,87,0.00,CLR,,0.00,WeatherDisplay:10.37,2013-08-23 05:03:00,
2013-08-23 00:13:00,75.9,72.1,30.03,NW,309,0.0,0.0,88,0.00,CLR,,0.00,WeatherDisplay:10.37,2013-08-23 05:13:00,
2013-08-23 00:23:00,75.8,72.0,30.02,NW,309,0.0,0.0,88,0.00,CLR,,0.00,WeatherDisplay:10.37,2013-08-23 05:23:00,
2013-08-23 00:33:00,75.8,72.3,30.02,NW,309,0.0,0.0,89,0.00,CLR,,0.00,WeatherDisplay:10.37,2013-08-23 05:33:00,
2013-08-23 00:43:00,75.8,72.3,30.02,NW,309,0.0,0.0,89,0.00,CLR,,0.00,WeatherDisplay:10.37,2013-08-23 05:43:00,
2013-08-23 00:53:00,75.7,72.2,30.02,NW,309,0.0,0.0,89,0.00,CLR,,0.00,WeatherDisplay:10.37,2013-08-23 05:53:00,
2013-08-23 01:03:00,75.6,72.1,30.02,NW,309,0.0,0.0,89,0.00,CLR,,0.00,WeatherDisplay:10.37,2013-08-23 06:03:00,
2013-08-23 01:13:00,75.6,72.1,30.02,NW,309,0.0,0.0,89,0.00,CLR,,0.00,WeatherDisplay:10.37,2013-08-23 06:13:00,
2013-08-23 01:23:00,75.5,71.6,30.02,NW,309,0.0,0.0,88,0.00,CLR,,0.00,WeatherDisplay:10.37,2013-08-23 06:23:00,
2013-08-23 01:33:00,75.3,71.8,30.02,NW,309,0.0,0.0,89,0.00,CLR,,0.00,WeatherDisplay:10.37,2013-08-23 06:33:00,
2013-08-23 01:43:00,75.1,71.6,30.01,NW,309,0.0,0.0,89,0.00,CLR,,0.00,WeatherDisplay:10.37,2013-08-23 06:43:00,
2013-08-23 01:53:00,75.1,71.6,30.01,NW,309,0.0,0.0,89,0.00,CLR,,0.00,WeatherDisplay:10.37,2013-08-23 06:53:00,
2013-08-23 02:03:00,74.9,71.4,30.01,NW,309,0.0,0.0,89,0.00,CLR,,0.00,WeatherDisplay:10.37,2013-08-23 07:03:00,
2013-08-23 02:13:00,74.9,71.4,30.01,NW,309,0.0,0.0,89,0.00,CLR,,0.00,WeatherDisplay:10.37,2013-08-23 07:13:00,
2013-08-23 02:23:00,74.7,71.2,30.01,NW,309,0.0,0.0,89,0.00,CLR,,0.00,WeatherDisplay:10.37,2013-08-23 07:23:00,
2013-08-23 02:33:00,74.5,71.0,30.01,NW,309,0.0,0.0,89,0.00,CLR,,0.00,WeatherDisplay:10.37,2013-08-23 07:33:00,
2013-08-23 02:43:00,74.3,71.2,30.01,NW,309,0.0,0.0,90,0.00,CLR,,0.00,WeatherDisplay:10.37,2013-08-23 07:43:00,
2013-08-23 02:53:00,74.2,71.0,30.01,NW,309,0.0,0.0,90,0.00,CLR,,0.00,WeatherDisplay:10.37,2013-08-23 07:53:00,
2013-08-23 03:03:00,73.9,71.1,30.01,NW,309,0.0,0.0,91,0.00,CLR,,0.00,WeatherDisplay:10.37,2013-08-23 08:03:00,
2013-08-23 03:13:00,73.8,71.0,30.02,NW,309,0.0,0.0,91,0.00,CLR,,0.00,WeatherDisplay:10.37,2013-08-23 08:13:00,
2013-08-23 03:23:00,73.7,71.2,30.02,NW,309,0.0,0.0,92,0.00,CLR,,0.00,WeatherDisplay:10.37,2013-08-23 08:23:00,
2013-08-23 03:33:00,73.5,71.4,30.02,NW,309,0.0,0.0,93,0.00,CLR,,0.00,WeatherDisplay:10.37,2013-08-23 08:33:00,
2013-08-23 03:43:00,73.4,71.3,30.02,NW,309,0.0,0.0,93,0.00,CLR,,0.00,WeatherDisplay:10.37,2013-08-23 08:43:00,
2013-08-23 03:53:00,73.3,71.2,30.02,NW,309,0.0,0.0,93,0.00,CLR,,0.00,WeatherDisplay:10.37,2013-08-23 08:53:00,
2013-08-23 04:03:00,73.2,71.1,30.02,NW,309,0.0,0.0,93,0.00,CLR,,0.00,WeatherDisplay:10.37,2013-08-23 09:03:00,
2013-08-23 04:13:00,73.1,71.0,30.02,NW,309,0.0,0.0,93,0.00,CLR,,0.00,WeatherDisplay:10.37,2013-08-23 09:13:00,
2013-08-23 04:23:00,73.1,70.9,30.02,NW,309,0.0,0.0,93,0.00,CLR,,0.00,WeatherDisplay:10.37,2013-08-23 09:23:00,
2013-08-23 04:33:00,73.0,71.2,30.03,NW,309,0.0,1.0,94,0.00,CLR,,0.00,WeatherDisplay:10.37,2013-08-23 09:33:00,
2013-08-23 04:43:00,73.1,71.6,30.03,NW,309,0.0,1.0,95,0.00,CLR,,0.00,WeatherDisplay:10.37,2013-08-23 09:43:00,
2013-08-23 04:53:00,73.2,71.4,30.03,NW,309,0.0,1.0,94,0.00,CLR,,0.00,WeatherDisplay:10.37,2013-08-23 09:53:00,
2013-08-23 05:03:00,73.1,71.3,30.03,NW,309,0.0,0.0,94,0.00,CLR,,0.00,WeatherDisplay:10.37,2013-08-23 10:03:00,
2013-08-23 05:13:00,73.1,71.3,30.04,NW,309,0.0,0.0,94,0.00,CLR,,0.00,WeatherDisplay:10.37,2013-08-23 10:13:00,
2013-08-23 05:23:00,73.0,71.2,30.04,NW,309,0.0,0.0,94,0.00,CLR,,0.00,WeatherDisplay:10.37,2013-08-23 10:23:00,
2013-08-23 05:33:00,72.9,71.4,30.04,NW,309,0.0,0.0,95,0.00,CLR,,0.00,WeatherDisplay:10.37,2013-08-23 10:33:00,
2013-08-23 05:43:00,72.8,71.3,30.04,NW,309,0.0,0.0,95,0.00,CLR,,0.00,WeatherDisplay:10.37,2013-08-23 10:43:00,
2013-08-23 05:52:00,72.8,71.0,30.04,NW,309,0.0,1.0,94,0.00,CLR,,0.00,WeatherDisplay:10.37,2013-08-23 10:52:00,
2013-08-23 06:02:00,72.7,71.2,30.05,NW,309,0.0,0.0,95,0.00,CLR,,0.00,WeatherDisplay:10.37,2013-08-23 11:02:00,
2013-08-23 06:12:00,72.7,71.2,30.05,NW,309,0.0,0.0,95,0.00,CLR,,0.00,WeatherDisplay:10.37,2013-08-23 11:12:00,
2013-08-23 06:22:00,72.6,71.1,30.05,NW,309,0.0,0.0,95,0.00,CLR,,0.00,WeatherDisplay:10.37,2013-08-23 11:22:00,
2013-08-23 06:32:00,72.6,71.1,30.05,NW,309,0.0,0.0,95,0.00,CLR,,0.00,WeatherDisplay:10.37,2013-08-23 11:32:00,
2013-08-23 06:42:00,72.5,71.0,30.05,NW,309,0.0,0.0,95,0.00,CLR,,0.00,WeatherDisplay:10.37,2013-08-23 11:42:00,
2013-08-23 06:52:00,72.6,71.1,30.05,NW,309,0.0,0.0,95,0.00,CLR,,0.00,WeatherDisplay:10.37,2013-08-23 11:52:00,
2013-08-23 07:02:00,72.6,71.1,30.05,NW,309,0.0,0.0,95,0.00,CLR,,0.00,WeatherDisplay:10.37,2013-08-23 12:02:00,
2013-08-23 07:12:00,72.6,71.1,30.06,NW,309,0.0,0.0,95,0.00,CLR,,0.00,WeatherDisplay:10.37,2013-08-23 12:12:00,
2013-08-23 07:22:00,72.7,71.2,30.06,NW,309,0.0,0.0,95,0.00,CLR,,0.00,WeatherDisplay:10.37,2013-08-23 12:22:00,
2013-08-23 07:32:00,72.7,71.2,30.06,NW,309,0.0,0.0,95,0.00,CLR,,0.00,WeatherDisplay:10.37,2013-08-23 12:32:00,
2013-08-23 07:42:00,72.9,71.4,30.06,NW,309,0.0,0.0,95,0.00,CLR,,0.00,WeatherDisplay:10.37,2013-08-23 12:42:00,
2013-08-23 07:52:00,73.1,71.3,30.06,NW,309,0.0,0.0,94,0.00,CLR,,0.00,WeatherDisplay:10.37,2013-08-23 12:52:00,
2013-08-23 08:02:00,73.4,71.3,30.06,NW,309,0.0,1.0,93,0.00,CLR,,0.00,WeatherDisplay:10.37,2013-08-23 13:02:00,
2013-08-23 08:12:00,73.9,71.5,30.06,NW,309,0.0,1.0,92,0.00,CLR,,0.00,WeatherDisplay:10.37,2013-08-23 13:12:00,
2013-08-23 08:22:00,74.4,71.6,30.06,NW,309,0.0,2.0,91,0.00,CLR,,0.00,WeatherDisplay:10.37,2013-08-23 13:22:00,
2013-08-23 08:32:00,74.9,71.8,30.06,NW,309,0.0,2.0,90,0.00,CLR,,0.00,WeatherDisplay:10.37,2013-08-23 13:32:00,
2013-08-23 08:42:00,75.4,71.9,30.06,NW,306,0.0,2.0,89,0.00,CLR,,0.00,WeatherDisplay:10.37,2013-08-23 13:42:00,
2013-08-23 08:52:00,76.0,72.2,30.06,WNW,297,0.0,1.0,88,0.00,CLR,,0.00,WeatherDisplay:10.37,2013-08-23 13:52:00,
2013-08-23 09:02:00,76.5,72.4,30.06,WNW,297,0.0,0.0,87,0.00,CLR,,0.00,WeatherDisplay:10.37,2013-08-23 14:02:00,
2013-08-23 09:12:00,77.0,72.2,30.06,WNW,297,0.0,2.0,85,0.00,CLR,,0.00,WeatherDisplay:10.37,2013-08-23 14:12:00,
2013-08-23 09:22:00,77.6,72.8,30.06,WNW,297,0.0,2.0,85,0.00,CLR,,0.00,WeatherDisplay:10.37,2013-08-23 14:22:00,
2013-08-23 09:32:00,78.2,72.6,30.06,WNW,286,1.0,2.0,83,0.00,CLR,,0.00,WeatherDisplay:10.37,2013-08-23 14:32:00,
2013-08-23 09:42:00,78.6,73.0,30.06,WNW,300,0.0,3.0,83,0.00,CLR,,0.00,WeatherDisplay:10.37,2013-08-23 14:42:00,
2013-08-23 09:52:00,79.1,73.2,30.07,WNW,297,0.0,2.0,82,0.00,CLR,,0.00,WeatherDisplay:10.37,2013-08-23 14:52:00,
2013-08-23 10:02:00,79.8,73.4,30.07,WNW,288,0.0,1.0,81,0.00,CLR,,0.00,WeatherDisplay:10.37,2013-08-23 15:02:00,
2013-08-23 10:12:00,80.2,73.1,30.07,WNW,288,0.0,2.0,79,0.00,CLR,,0.00,WeatherDisplay:10.37,2013-08-23 15:12:00,
2013-08-23 10:22:00,80.5,73.4,30.07,WNW,288,0.0,1.0,79,0.00,CLR,,0.00,WeatherDisplay:10.37,2013-08-23 15:22:00,
2013-08-23 10:32:00,80.9,73.8,30.07,WNW,288,0.0,2.0,79,0.00,CLR,,0.00,WeatherDisplay:10.37,2013-08-23 15:32:00,
2013-08-23 10:42:00,82.0,74.5,30.07,WNW,288,0.0,2.0,78,0.00,CLR,,0.00,WeatherDisplay:10.37,2013-08-23 15:42:00,
2013-08-23 10:52:00,83.6,74.4,30.07,WNW,292,1.0,3.0,74,0.00,CLR,,0.00,WeatherDisplay:10.37,2013-08-23 15:52:00,
2013-08-23 11:02:00,84.3,74.3,30.07,WNW,285,0.0,2.0,72,0.00,CLR,,0.00,WeatherDisplay:10.37,2013-08-23 16:02:00,
2013-08-23 11:12:00,84.9,74.0,30.06,West,272,0.0,3.0,70,0.00,CLR,,0.00,WeatherDisplay:10.37,2013-08-23 16:12:00,
2013-08-23 11:22:00,85.5,74.1,30.06,WNW,302,0.0,3.0,69,0.00,CLR,,0.00,WeatherDisplay:10.37,2013-08-23 16:22:00,
2013-08-23 11:32:00,85.9,74.1,30.06,WNW,302,0.0,3.0,68,0.00,CLR,,0.00,WeatherDisplay:10.37,2013-08-23 16:32:00,
2013-08-23 11:42:00,86.3,74.9,30.06,WNW,302,0.0,1.0,69,0.00,CLR,,0.00,WeatherDisplay:10.37,2013-08-23 16:42:00,
2013-08-23 11:52:00,86.8,74.5,30.06,WNW,302,0.0,1.0,67,0.00,CLR,,0.00,WeatherDisplay:10.37,2013-08-23 16:52:00,
2013-08-23 12:02:00,86.6,74.3,30.06,WNW,302,0.0,1.0,67,0.00,CLR,,0.00,WeatherDisplay:10.37,2013-08-23 17:02:00,
2013-08-23 12:12:00,86.2,74.4,30.05,WNW,302,0.0,1.0,68,0.00,CLR,,0.00,WeatherDisplay:10.37,2013-08-23 17:12:00,
2013-08-23 12:22:00,86.0,74.2,30.05,WNW,302,0.0,0.0,68,0.00,CLR,,0.00,WeatherDisplay:10.37,2013-08-23 17:22:00,
2013-08-23 12:32:00,86.0,74.6,30.05,WNW,300,0.0,2.0,69,0.00,CLR,,0.00,WeatherDisplay:10.37,2013-08-23 17:32:00,
2013-08-23 12:42:00,86.1,73.4,30.05,West,277,0.0,2.0,66,0.00,CLR,,0.00,WeatherDisplay:10.37,2013-08-23 17:42:00,
2013-08-23 12:52:00,86.1,74.3,30.05,West,276,0.0,0.0,68,0.00,CLR,,0.00,WeatherDisplay:10.37,2013-08-23 17:52:00,
2013-08-23 13:02:00,86.1,73.9,30.05,West,276,0.0,1.0,67,0.00,CLR,,0.00,WeatherDisplay:10.37,2013-08-23 18:02:00,
2013-08-23 13:12:00,86.8,73.6,30.05,WSW,256,0.0,2.0,65,0.00,CLR,,0.00,WeatherDisplay:10.37,2013-08-23 18:12:00,
2013-08-23 13:22:00,87.1,73.9,30.05,NW,304,0.0,4.0,65,0.00,CLR,,0.00,WeatherDisplay:10.37,2013-08-23 18:22:00,
2013-08-23 13:32:00,87.0,74.7,30.05,WNW,291,0.0,0.0,67,0.00,CLR,,0.00,WeatherDisplay:10.37,2013-08-23 18:32:00,
2013-08-23 13:42:00,86.5,73.3,30.04,WNW,291,0.0,1.0,65,0.00,CLR,,0.00,WeatherDisplay:10.37,2013-08-23 18:42:00,
2013-08-23 13:52:00,86.2,73.0,30.04,WNW,291,0.0,1.0,65,0.00,CLR,,0.00,WeatherDisplay:10.37,2013-08-23 18:52:00,
2013-08-23 14:02:00,86.3,72.2,30.03,WNW,293,0.0,3.0,63,0.00,CLR,,0.00,WeatherDisplay:10.37,2013-08-23 19:02:00,
2013-08-23 14:12:00,86.9,72.8,30.03,SW,222,0.0,3.0,63,0.00,CLR,,0.00,WeatherDisplay:10.37,2013-08-23 19:12:00,
2013-08-23 14:22:00,86.5,71.9,30.03,WNW,302,1.0,3.0,62,0.00,CLR,,0.00,WeatherDisplay:10.37,2013-08-23 19:22:00,
2013-08-23 14:32:00,87.0,72.4,30.03,SSW,203,0.0,3.0,62,0.00,CLR,,0.00,WeatherDisplay:10.37,2013-08-23 19:32:00,
2013-08-23 14:42:00,87.5,72.4,30.02,West,277,1.0,3.0,61,0.00,CLR,,0.00,WeatherDisplay:10.37,2013-08-23 19:42:00,
2013-08-23 14:52:00,87.9,72.3,30.03,West,262,0.0,3.0,60,0.00,CLR,,0.00,WeatherDisplay:10.37,2013-08-23 19:52:00,
2013-08-23 15:02:00,87.8,72.2,30.02,NW,310,0.0,1.0,60,0.00,CLR,,0.00,WeatherDisplay:10.37,2013-08-23 20:02:00,
2013-08-23 15:12:00,88.1,72.0,30.01,WSW,249,1.0,2.0,59,0.00,CLR,,0.00,WeatherDisplay:10.37,2013-08-23 20:12:00,
2013-08-23 15:22:00,89.0,72.3,30.01,South,187,0.0,3.0,58,0.00,CLR,,0.00,WeatherDisplay:10.37,2013-08-23 20:22:00,
2013-08-23 15:32:00,89.1,72.4,30.01,SW,224,1.0,4.0,58,0.00,CLR,,0.00,WeatherDisplay:10.37,2013-08-23 20:32:00,
2013-08-23 15:42:00,88.5,71.8,30.01,SW,224,1.0,3.0,58,0.00,CLR,,0.00,WeatherDisplay:10.37,2013-08-23 20:42:00,
2013-08-23 15:52:00,88.2,72.1,30.00,SW,223,1.0,3.0,59,0.00,CLR,,0.00,WeatherDisplay:10.37,2013-08-23 20:52:00,
2013-08-23 16:02:00,87.9,71.8,30.00,West,259,0.0,3.0,59,0.00,CLR,,0.00,WeatherDisplay:10.37,2013-08-23 21:02:00,
2013-08-23 16:12:00,87.8,71.2,30.00,SW,223,0.0,3.0,58,0.00,CLR,,0.00,WeatherDisplay:10.37,2013-08-23 21:12:00,
2013-08-23 16:22:00,87.7,71.1,30.00,West,268,0.0,2.0,58,0.00,CLR,,0.00,WeatherDisplay:10.37,2013-08-23 21:22:00,
2013-08-23 16:32:00,87.7,71.1,30.00,WSW,257,0.0,2.0,58,0.00,CLR,,0.00,WeatherDisplay:10.37,2013-08-23 21:32:00,
2013-08-23 16:42:00,87.6,70.5,30.00,WSW,252,0.0,3.0,57,0.00,CLR,,0.00,WeatherDisplay:10.37,2013-08-23 21:42:00,
2013-08-23 16:52:00,87.5,69.9,30.00,South,188,1.0,2.0,56,0.00,CLR,,0.00,WeatherDisplay:10.37,2013-08-23 21:52:00,
2013-08-23 17:02:00,87.4,69.8,30.00,SSW,203,0.0,2.0,56,0.00,CLR,,0.00,WeatherDisplay:10.37,2013-08-23 22:02:00,
2013-08-23 17:12:00,87.3,69.7,30.00,SSW,203,0.0,2.0,56,0.00,CLR,,0.00,WeatherDisplay:10.37,2013-08-23 22:12:00,
2013-08-23 17:22:00,87.1,68.9,30.00,SW,232,0.0,3.0,55,0.00,CLR,,0.00,WeatherDisplay:10.37,2013-08-23 22:22:00,
2013-08-23 17:32:00,86.9,69.3,30.00,West,267,0.0,4.0,56,0.00,CLR,,0.00,WeatherDisplay:10.37,2013-08-23 22:32:00,
2013-08-23 17:42:00,86.7,69.1,30.00,WNW,294,0.0,2.0,56,0.00,CLR,,0.00,WeatherDisplay:10.37,2013-08-23 22:42:00,
2013-08-23 17:52:00,86.5,68.9,30.00,WSW,240,0.0,2.0,56,0.00,CLR,,0.00,WeatherDisplay:10.37,2013-08-23 22:52:00,
2013-08-23 18:02:00,86.4,68.8,30.00,WSW,240,1.0,2.0,56,0.00,CLR,,0.00,WeatherDisplay:10.37,2013-08-23 23:02:00,
2013-08-23 18:12:00,86.2,69.2,30.00,WSW,240,0.0,3.0,57,0.00,CLR,,0.00,WeatherDisplay:10.37,2013-08-23 23:12:00,
2013-08-23 18:22:00,85.9,68.9,30.00,WSW,248,0.0,2.0,57,0.00,CLR,,0.00,WeatherDisplay:10.37,2013-08-23 23:22:00,
2013-08-23 18:32:00,85.7,69.2,30.01,WNW,292,0.0,3.0,58,0.00,CLR,,0.00,WeatherDisplay:10.37,2013-08-23 23:32:00,
2013-08-23 18:42:00,85.4,68.9,30.01,WNW,298,0.0,1.0,58,0.00,CLR,,0.00,WeatherDisplay:10.37,2013-08-23 23:42:00,
2013-08-23 18:52:00,85.1,69.2,30.01,West,261,0.0,3.0,59,0.00,CLR,,0.00,WeatherDisplay:10.37,2013-08-23 23:52:00,
2013-08-23 19:02:00,84.8,69.4,30.01,WSW,240,0.0,1.0,60,0.00,CLR,,0.00,WeatherDisplay:10.37,2013-08-24 00:02:00,
2013-08-23 19:12:00,84.5,68.6,30.01,WSW,240,0.0,2.0,59,0.00,CLR,,0.00,WeatherDisplay:10.37,2013-08-24 00:12:00,
2013-08-23 19:22:00,84.1,68.2,30.02,WSW,240,0.0,1.0,59,0.00,CLR,,0.00,WeatherDisplay:10.37,2013-08-24 00:22:00,
2013-08-23 19:32:00,83.6,67.3,30.02,West,262,0.0,1.0,58,0.00,CLR,,0.00,WeatherDisplay:10.37,2013-08-24 00:32:00,
2013-08-23 19:42:00,83.3,67.5,30.02,West,262,0.0,1.0,59,0.00,CLR,,0.00,WeatherDisplay:10.37,2013-08-24 00:42:00,
2013-08-23 19:52:00,82.9,67.6,30.03,West,262,0.0,0.0,60,0.00,CLR,,0.00,WeatherDisplay:10.37,2013-08-24 00:52:00,
2013-08-23 20:02:00,82.6,68.7,30.03,West,262,0.0,0.0,63,0.00,CLR,,0.00,WeatherDisplay:10.37,2013-08-24 01:02:00,
2013-08-23 20:12:00,81.8,68.0,30.03,West,262,0.0,0.0,63,0.00,CLR,,0.00,WeatherDisplay:10.37,2013-08-24 01:12:00,
2013-08-23 20:22:00,81.4,68.5,30.03,West,262,0.0,0.0,65,0.00,CLR,,0.00,WeatherDisplay:10.37,2013-08-24 01:22:00,
2013-08-23 20:32:00,80.7,68.3,30.04,West,262,0.0,0.0,66,0.00,CLR,,0.00,WeatherDisplay:10.37,2013-08-24 01:32:00,
2013-08-23 20:42:00,79.9,68.0,30.04,West,262,0.0,0.0,67,0.00,CLR,,0.00,WeatherDisplay:10.37,2013-08-24 01:42:00,
2013-08-23 20:52:00,79.4,67.9,30.04,West,262,0.0,0.0,68,0.00,CLR,,0.00,WeatherDisplay:10.37,2013-08-24 01:52:00,
2013-08-23 21:02:00,79.1,68.0,30.05,West,262,0.0,0.0,69,0.00,CLR,,0.00,WeatherDisplay:10.37,2013-08-24 02:02:00,
2013-08-23 21:12:00,78.5,68.3,30.05,West,262,0.0,0.0,71,0.00,CLR,,0.00,WeatherDisplay:10.37,2013-08-24 02:12:00,
2013-08-23 21:22:00,78.1,68.3,30.05,West,262,0.0,0.0,72,0.00,CLR,,0.00,WeatherDisplay:10.37,2013-08-24 02:22:00,
2013-08-23 21:32:00,77.7,68.4,30.05,West,262,0.0,0.0,73,0.00,CLR,,0.00,WeatherDisplay:10.37,2013-08-24 02:32:00,
2013-08-23 21:42:00,77.4,68.5,30.05,West,262,0.0,0.0,74,0.00,CLR,,0.00,WeatherDisplay:10.37,2013-08-24 02:42:00,
2013-08-23 21:52:00,76.9,68.4,30.05,West,262,0.0,0.0,75,0.00,CLR,,0.00,WeatherDisplay:10.37,2013-08-24 02:52:00,
2013-08-23 22:02:00,76.2,68.1,30.05,West,262,0.0,0.0,76,0.00,CLR,,0.00,WeatherDisplay:10.37,2013-08-24 03:02:00,
2013-08-23 22:12:00,75.9,68.2,30.05,West,262,0.0,0.0,77,0.00,CLR,,0.00,WeatherDisplay:10.37,2013-08-24 03:12:00,
2013-08-23 22:22:00,75.6,68.3,30.06,West,262,0.0,0.0,78,0.00,CLR,,0.00,WeatherDisplay:10.37,2013-08-24 03:22:00,
2013-08-23 22:32:00,75.3,68.4,30.06,West,262,0.0,0.0,79,0.00,CLR,,0.00,WeatherDisplay:10.37,2013-08-24 03:32:00,
2013-08-23 22:42:00,75.1,68.1,30.06,West,262,0.0,0.0,79,0.00,CLR,,0.00,WeatherDisplay:10.37,2013-08-24 03:42:00,
2013-08-23 22:52:00,74.9,67.9,30.06,West,262,0.0,0.0,79,0.00,CLR,,0.00,WeatherDisplay:10.37,2013-08-24 03:52:00,
2013-08-23 23:02:00,74.7,68.1,30.06,West,262,0.0,0.0,80,0.00,CLR,,0.00,WeatherDisplay:10.37,2013-08-24 04:02:00,
2013-08-23 23:12:00,74.4,68.2,30.06,West,262,0.0,0.0,81,0.00,CLR,,0.00,WeatherDisplay:10.37,2013-08-24 04:12:00,
2013-08-23 23:22:00,74.3,68.1,30.06,West,262,0.0,0.0,81,0.00,CLR,,0.00,WeatherDisplay:10.37,2013-08-24 04:22:00,
2013-08-23 23:32:00,74.3,68.1,30.06,West,262,0.0,1.0,81,0.00,CLR,,0.00,WeatherDisplay:10.37,2013-08-24 04:32:00,
2013-08-23 23:42:00,74.5,68.3,30.06,West,262,0.0,0.0,81,0.00,CLR,,0.00,WeatherDisplay:10.37,2013-08-24 04:42:00,
2013-08-23 23:52:00,74.5,68.3,30.06,West,262,0.0,1.0,81,0.00,CLR,,0.00,WeatherDisplay:10.37,2013-08-24 04:52:00,